Location: Unspecified
(0.0000°N, 0.0000°E)
Time: 19:35:07
(UTC+00:00)

Vanguard 1 - Pass Details

Date: 17 December 2017
Orbit: 650 x 3833 km, 34.2° (Epoch: 21 July)

Event Time Altitude Azimuth Distance (km) Brightness Sun altitude
Rises 12:40:28 0° 321° (NW) 6,567 14.2 64.3°
Reaches altitude 10° 12:51:42 10° 358° (N) 4,367 13.3 63.0°
Maximum altitude 12:52:59 10° 5° (N) 4,199 13.2 62.9°
Drops below altitude 10° 12:54:12 10° 11° (NNE) 4,071 13.1 62.7°
Sets 13:01:24 0° 53° (NE) 4,176 13.0 61.8°
